www.pogodaiklimat.ru

Погода и климат >> Архив погоды >> Великобритания >> Сейнт Атан


ПОГОДА в Сейнт Атан

  • Прогноз погоды в Сейнт Атан
  • Монитор погоды в Сейнт Атан

АРХИВ ПОГОДЫ в Сейнт Атан

Время (UTC), дата Ветер
(напр.,м/с)
 
Видим.   Явления Облачность Т
(С)
Тd
(С)
f
(%)
Тe
(С)
Тes
(С)
Комфортность P
(гПа)
Po
(гПа)
Тmin
(С)
Tmax
(С)
R
(мм)
R24
(мм)
S
(см)
07 17.06 ЮЗ 4 35 км н/о +14.6 +11.3 81 +13 +13 1015.9 1010.0
08 17.06 Ю 3 30 км н/о +14.6 +11.2 80 +14 +14 1016.3 1010.4
09 17.06 Ю 3 40 км н/о +15.8 +11.9 78 +15 +15 1016.2 1010.4
10 17.06 ЮЗ 4 50 км н/о +16.7 +12.1 74 +16 +16 1016.2 1010.4
11 17.06 Ю 3 45 км н/о +16.1 +12.4 79 +16 +16 1016.3 1010.5
12 17.06 Ю 3 55 км н/о +16.2 +11.8 75 +16 +16 1016.1 1010.3
13 17.06 ЮЗ 3 50 км н/о +17.2 +12.0 71 +17 +17 1016.2 1010.4
14 17.06 З 3 35 км н/о +16.7 +12.2 75 +17 +17 1016.2 1010.4
15 17.06 З 5 35 км н/о +16.4 +11.8 74 +16 +16 1016.1 1010.3
16 17.06 З 6 35 км в посл. час осадки н/о +16.1 +11.3 73 +15 +15 1016.0 1010.1
17 17.06 З 6 50 км н/о +15.9 +10.0 68 +15 +15 1016.0 1010.1
18 17.06 З 5 45 км н/о +15.6 +10.9 74 +14 +14 1015.7 1009.9 +17.4 0.0
19 17.06 З 3 35 км н/о +14.9 +11.2 79 +14 +14 1015.7 1009.8
20 17.06 З 3 35 км н/о +14.5 +11.6 83 +14 +14 1016.0 1010.1
21 17.06 З 4 29 км н/о +14.1 +11.8 86 +13 +13 1016.2 1010.3
22 17.06 СЗ 2 27 км н/о +14.0 +12.0 88 +13 +13 1016.2 1010.3
23 17.06 СЗ 2 25 км н/о +13.5 +12.1 91 +13 +13 1016.3 1010.4
00 18.06 СЗ 2 24 км н/о +13.5 +12.1 91 +13 +13 1015.9 1010.0
01 18.06 СВ 1 20 км н/о +12.9 +11.7 92 +13 +13 1015.5 1009.5
02 18.06 СВ 1 15 км н/о +12.1 +11.3 95 +12 +12 1015.3 1009.4
03 18.06 СВ 1 13 км н/о +11.9 +11.3 96 +12 +12 1015.0 1009.1
04 18.06 В 2 13 км н/о +10.7 +10.2 97 +10 +10 1014.8 1008.8
05 18.06 В 1 8000 м дымка н/о +11.2 +10.8 97 +11 +11 1014.7 1008.7
06 18.06 СВ 1 10 км дымка н/о +12.1 +11.8 98 +12 +12 1014.6 1008.7 +10.7
07 18.06 СВ 2 25 км н/о +13.2 +12.2 94 +13 +13 1014.3 1008.4
08 18.06 ЮВ 3 45 км н/о +14.3 +11.1 81 +14 +14 1014.7 1008.9
09 18.06 ЮВ 3 30 км н/о +14.2 +11.2 82 +13 +13 1014.6 1008.7
10 18.06 ЮВ 2 40 км слаб. ливневой дождь н/о +14.7 +10.8 77 +14 +14 1014.2 1008.3
11 18.06 В 3 13 км дождь н/о +14.6 +11.9 84 +14 +14 1013.8 1007.9
12 18.06 ЮВ 2 60 км в посл. час дождь н/о +15.5 +11.3 76 +15 +15 1013.6 1007.7 0.0
13 18.06 ЮВ 3 25 км ливневой дождь н/о +14.4 +12.4 88 +14 +14 1013.5 1007.6
14 18.06 В 3 40 км дождь н/о +14.7 +11.9 83 +14 +14 1013.0 1007.1
15 18.06 В 2 26 км ливневой дождь н/о +14.9 +11.3 79 +15 +15 1012.6 1006.8
16 18.06 СВ 2 17 км дождь н/о +14.6 +12.5 87 +14 +14 1012.3 1006.4
17 18.06 СВ 2 35 км в посл. час дождь н/о +14.4 +12.8 90 +14 +14 1012.0 1006.1
18 18.06 В 2 40 км н/о +14.3 +12.5 89 +14 +14 1011.8 1006.0 +15.9 0.6
19 18.06 СВ 2 28 км н/о +14.4 +12.7 90 +14 +14 1011.5 1005.6
20 18.06 В 1 8000 м ливневой дождь н/о +14.3 +13.1 92 +15 +15 1011.3 1005.5
21 18.06 С 1 14 км слаб. дождь н/о +13.9 +13.0 94 +14 +14 1011.2 1005.4
22 18.06 С 2 17 км в посл. час дождь н/о +13.3 +12.6 96 +13 +13 1010.9 1005.0
23 18.06 С 2 21 км слаб. ливневой дождь н/о +13.0 +12.2 95 +12 +12 1010.3 1004.4
00 19.06 СЗ 1 27 км в посл. час дождь н/о +12.7 +11.7 94 +13 +13 1009.8 1003.9 0.6
01 19.06 С 1 18 км н/о +12.6 +11.7 94 +12 +12 1009.4 1003.5
02 19.06 С 1 15 км в посл. час дождь н/о +12.6 +11.8 95 +13 +13 1008.9 1003.0
03 19.06 З 2 30 км в посл. час дождь н/о +12.7 +11.8 94 +12 +12 1008.7 1002.8
04 19.06 штиль 0 27 км н/о +12.9 +11.7 92 +12 +12 1008.8 1002.9
05 19.06 З 1 13 км слаб. ливневой дождь н/о +13.4 +12.3 93 +13 +13 1008.4 1002.5
06 19.06 СЗ 2 12 км в посл. час дождь н/о +13.5 +12.4 93 +13 +13 1008.1 1002.2 +12.5 0.8
07 19.06 СЗ 1 20 км н/о +14.1 +12.3 89 +14 +14 1008.4 1002.6
08 19.06 СЗ 2 35 км н/о +14.5 +12.3 87 +14 +14 1008.6 1002.7
09 19.06 З 2 12 км ливневой дождь н/о +15.3 +12.3 82 +15 +15 1008.4 1002.6
10 19.06 СЗ 3 25 км в посл. час осадки н/о +14.9 +12.3 84 +14 +14 1008.8 1002.9
11 19.06 СЗ 3 20 км н/о +14.2 +12.5 90 +13 +13 1008.9 1003.0
12 19.06 З 4 26 км ливневой дождь н/о +14.8 +12.7 87 +14 +14 1009.1 1003.3 0.0
13 19.06 З 4 30 км в посл. час дождь н/о +15.2 +12.9 86 +14 +14 1009.4 1003.5
14 19.06 З 5 50 км н/о +16.8 +13.0 78 +16 +16 1009.1 1003.3
15 19.06 З 7 45 км н/о +16.3 +10.2 67 +15 +15 1009.1 1003.3
16 19.06 З 7 40 км н/о +16.7 +10.9 69 +16 +16 1009.0 1003.2
17 19.06 З 7 35 км н/о +16.0 +11.8 76 +15 +15 1009.1 1003.3
18 19.06 З 7 35 км н/о +15.6 +11.3 76 +14 +14 1009.5 1003.6 +17.2 0.0
19 19.06 З 6 40 км н/о +14.8 +10.6 76 +13 +13 1009.7 1003.9
20 19.06 З 6 40 км н/о +13.8 +10.3 79 +12 +12 1010.2 1004.3
21 19.06 З 6 35 км н/о +12.9 +10.7 86 +11 +11 1010.8 1004.9
22 19.06 З 5 35 км н/о +12.7 +10.7 88 +10 +10 1011.1 1005.2
23 19.06 З 4 35 км н/о +12.6 +10.7 88 +11 +11 1011.3 1005.4
00 20.06 З 5 40 км н/о +12.7 +10.6 87 +11 +11 1011.3 1005.4
01 20.06 З 4 40 км н/о +12.7 +10.5 86 +11 +11 1011.3 1005.4
02 20.06 З 6 40 км н/о +13.0 +10.5 85 +11 +11 1011.2 1005.3
03 20.06 З 5 40 км н/о +12.9 +10.1 83 +11 +11 1011.0 1005.1
04 20.06 З 6 30 км н/о +13.0 +10.7 86 +11 +11 1011.2 1005.3
05 20.06 З 5 30 км н/о +13.0 +10.9 87 +11 +11 1011.4 1005.5
06 20.06 З 4 35 км н/о +13.4 +10.6 83 +12 +12 1011.8 1005.9 +12.5
07 20.06 З 5 35 км н/о +13.8 +10.8 82 +12 +12 1012.0 1006.2
08 20.06 З 6 45 км н/о +14.0 +9.9 76 +12 +12 1012.6 1006.7
09 20.06 З 6 45 км н/о +14.5 +9.8 73 +13 +13 1012.8 1007.0
10 20.06 З 6 35 км н/о +14.7 +10.2 74 +13 +13 1013.1 1007.2
11 20.06 З 6 60 км н/о +15.8 +10.2 69 +14 +14 1013.7 1007.9
12 20.06 З 6 60 км н/о +16.3 +10.4 68 +15 +15 1013.7 1007.9
13 20.06 З 7 >70 км н/о +15.4 +8.8 65 +14 +14 1013.9 1008.0
14 20.06 З 7 55 км н/о +15.1 +9.8 71 +13 +13 1014.0 1008.1
15 20.06 З 8 55 км н/о +16.1 +10.4 69 +15 +15 1014.2 1008.4
16 20.06 З 6 50 км н/о +14.5 +9.2 70 +13 +13 1014.4 1008.5
17 20.06 З 7 60 км в посл. час дождь н/о +15.3 +10.0 71 +14 +14 1014.7 1008.9
18 20.06 З 6 60 км н/о +14.6 +9.4 71 +13 +13 1015.1 1009.2 +16.7 0.0
19 20.06 З 6 65 км н/о +14.3 +9.2 71 +12 +12 1015.2 1009.3
20 20.06 З 5 55 км н/о +13.5 +8.8 73 +12 +12 1015.4 1009.5
21 20.06 З 4 50 км н/о +13.0 +9.5 79 +11 +11 1015.8 1009.9
22 20.06 З 4 50 км н/о +12.7 +9.1 79 +11 +11 1016.1 1010.2
23 20.06 З 4 45 км н/о +12.6 +9.3 80 +11 +11 1016.5 1010.6
00 21.06 З 3 45 км н/о +12.0 +8.5 79 +11 +11 1016.8 1010.8
01 21.06 З 3 40 км н/о +12.6 +9.2 80 +11 +11 1017.0 1011.0
02 21.06 З 4 35 км н/о +12.7 +9.3 80 +11 +11 1017.1 1011.1
03 21.06 З 4 35 км н/о +12.4 +10.1 86 +11 +11 1017.3 1011.3
04 21.06 З 3 35 км н/о +12.1 +9.4 84 +10 +10 1017.5 1011.6
05 21.06 З 3 35 км н/о +12.3 +9.4 82 +11 +11 1017.7 1011.8
06 21.06 З 3 30 км н/о +14.0 +10.1 77 +13 +13 1018.1 1012.2 +12.0
07 21.06 З 4 30 км н/о +14.2 +10.5 78 +13 +13 1018.6 1012.7
08 21.06 З 5 30 км н/о +14.5 +10.7 78 +13 +13 1019.2 1013.3
09 21.06 З 5 40 км н/о +15.7 +10.6 72 +15 +15 1019.5 1013.6
10 21.06 З 5 60 км н/о +15.6 +6.8 56 +14 +14 1019.6 1013.8
11 21.06 З 5 70 км н/о +16.6 +8.0 57 +16 +16 1019.8 1014.0
12 21.06 З 6 55 км н/о +16.7 +8.3 58 +16 +16 1020.1 1014.2
13 21.06 З 6 60 км н/о +17.0 +8.9 59 +16 +16 1020.4 1014.5
14 21.06 З 6 65 км н/о +16.7 +6.5 51 +16 +16 1020.6 1014.8
15 21.06 З 6 >70 км н/о +16.4 +7.1 54 +15 +15 1020.9 1015.0
16 21.06 З 5 70 км н/о +15.9 +7.7 58 +15 +15 1021.0 1015.1
17 21.06 З 7 60 км н/о +15.5 +7.5 59 +14 +14 1021.1 1015.2
18 21.06 З 7 60 км н/о +15.1 +6.8 58 +13 +13 1021.2 1015.3 +17.3
19 21.06 З 5 60 км н/о +14.5 +8.3 66 +13 +13 1021.6 1015.7
20 21.06 З 4 55 км н/о +13.7 +8.1 69 +12 +12 1021.7 1015.7
21 21.06 З 4 55 км н/о +12.5 +8.1 75 +11 +11 1022.0 1016.0
22 21.06 З 3 55 км н/о +12.1 +8.4 78 +11 +11 1022.1 1016.2
23 21.06 З 2 50 км н/о +11.4 +8.5 82 +11 +11 1022.0 1016.0
00 22.06 З 2 50 км н/о +11.3 +8.5 83 +10 +10 1022.1 1016.1
01 22.06 С 1 45 км н/о +9.0 +7.0 87 +8 +8 1022.0 1015.9
02 22.06 С 1 35 км н/о +9.4 +7.5 88 +9 +9 1021.7 1015.7
03 22.06 С 2 30 км н/о +8.0 +6.6 91 +6 +6 1021.2 1015.2
04 22.06 СВ 2 25 км н/о +7.3 +5.6 89 +6 +6 1021.2 1015.1
05 22.06 С 2 35 км н/о +7.9 +6.4 90 +6 +6 1021.2 1015.1
06 22.06 СВ 2 40 км н/о +10.8 +8.6 86 +9 +9 1021.0 1015.1 +7.2
07 22.06 В 3 35 км н/о +13.2 +10.3 83 +12 +12 1021.3 1015.3
08 22.06 ЮВ 3 40 км н/о +14.6 +10.8 78 +14 +14 1021.0 1015.1
09 22.06 В 3 60 км н/о +15.5 +9.1 66 +15 +15 1020.9 1015.0
10 22.06 ЮВ 3 55 км н/о +16.7 +9.4 62 +16 +16 1020.6 1014.7
11 22.06 ЮВ 3 >70 км н/о +17.9 +8.6 54 +18 +18 1020.4 1014.5
12 22.06 В 3 >70 км н/о +19.3 +6.8 44 +20 +20 1020.1 1014.3
13 22.06 В 5 55 км н/о +19.7 +9.1 50 +21 +21 комфорт 1019.6 1013.8
14 22.06 ЮВ 4 >70 км н/о +20.8 +9.8 49 +23 +23 комфорт 1019.1 1013.3
15 22.06 ЮВ 4 70 км н/о +20.8 +9.2 47 +23 +23 комфорт 1018.8 1013.0
16 22.06 ЮВ 4 >70 км н/о +20.5 +8.9 47 +22 +22 комфорт 1018.3 1012.5
17 22.06 ЮВ 3 >70 км н/о +19.6 +8.4 48 +21 +21 комфорт 1018.0 1012.2
18 22.06 ЮВ 2 >70 км н/о +18.6 +9.5 55 +20 +20 1018.0 1012.2 +21.1
19 22.06 ЮВ 2 >70 км н/о +18.0 +9.3 57 +19 +19 1018.0 1012.2
20 22.06 ЮВ 3 >70 км н/о +16.3 +9.7 65 +16 +16 1018.0 1012.2
21 22.06 В 4 >70 км в посл. час дождь н/о +16.0 +10.6 70 +15 +15 1018.2 1012.3
22 22.06 В 4 >70 км н/о +15.4 +8.8 65 +15 +15 1018.1 1012.2
23 22.06 В 4 >70 км н/о +15.3 +8.7 65 +14 +14 1017.9 1012.0
00 23.06 В 4 70 км н/о +15.1 +8.6 65 +14 +14 1018.0 1012.1 0.0
01 23.06 В 4 65 км н/о +14.4 +9.2 71 +13 +13 1018.1 1012.2
02 23.06 В 4 65 км н/о +14.3 +8.4 68 +13 +13 1017.6 1011.7
03 23.06 В 3 60 км н/о +13.7 +9.0 73 +13 +13 1017.1 1011.2
04 23.06 В 4 45 км н/о +13.6 +8.4 71 +12 +12 1016.7 1010.8
05 23.06 В 4 50 км н/о +13.6 +8.7 72 +12 +12 1016.9 1011.0
06 23.06 В 5 50 км н/о +13.7 +8.4 70 +12 +12 1016.6 1010.6 +13.2 0.0
07 23.06 В 5 40 км н/о +14.5 +8.9 69 +13 +13 1016.2 1010.3
08 23.06 В 5 30 км н/о +14.9 +9.7 71 +13 +13 1016.7 1010.8
09 23.06 В 5 30 км н/о +15.6 +10.6 72 +14 +14 1016.6 1010.8
10 23.06 В 6 29 км в посл. час дождь н/о +17.4 +12.1 71 +17 +17 1016.0 1010.2
11 23.06 В 5 30 км н/о +18.5 +12.8 69 +19 +19 1015.4 1009.6
12 23.06 В 6 22 км слаб. ливневой дождь н/о +18.4 +13.2 72 +18 +18 1014.6 1008.8 0.0
13 23.06 В 4 12 км дождь н/о +17.8 +14.8 83 +18 +18 1014.8 1009.0
14 23.06 СВ 6 6000 м дождь н/о +17.3 +16.1 93 +17 +17 1014.4 1008.6
15 23.06 СВ 6 11 км слаб. дождь н/о +17.4 +15.7 90 +17 +17 1013.5 1007.7
16 23.06 СВ 6 15 км в посл. час дождь н/о +17.9 +15.7 87 +17 +17 1013.0 1007.2
17 23.06 В 5 14 км в посл. час осадки н/о +18.2 +15.9 86 +18 +18 1012.7 1006.9
18 23.06 В 5 14 км н/о +18.6 +16.0 85 +19 +19 1012.4 1006.6 +19.0 3
19 23.06 В 3 13 км н/о +18.5 +16.2 86 +19 +19 1013.0 1007.2
20 23.06 СВ 3 14 км н/о +18.4 +16.1 86 +19 +19 1012.9 1007.1
21 23.06 СВ 3 17 км н/о +18.2 +16.0 87 +19 +19 1013.4 1007.6
22 23.06 В 3 14 км н/о +18.1 +15.8 86 +18 +18 1013.2 1007.4
23 23.06 В 4 14 км н/о +17.9 +15.2 84 +18 +18 1013.1 1007.2
00 24.06 В 3 13 км н/о +17.8 +14.9 83 +18 +18 1013.2 1007.4
01 24.06 В 4 11 км н/о +16.9 +14.7 87 +17 +17 1013.1 1007.2
02 24.06 В 3 10 км н/о +17.0 +14.7 86 +17 +17 1012.8 1007.0
03 24.06 СВ 3 12 км н/о +16.9 +15.0 89 +17 +17 1012.8 1007.0
04 24.06 В 3 10 км дым н/о +16.7 +15.1 90 +17 +17 1012.9 1007.0
05 24.06 СВ 3 11 км н/о +17.0 +15.1 89 +17 +17 1013.2 1007.4
06 24.06 СВ 2 13 км н/о +17.2 +15.2 88 +17 +17 1013.8 1008.0 +16.6
07 24.06 З 4 3100 м дым н/о +15.3 +14.1 93 +14 +14 1014.8 1009.0

 

Местоположение метеостанции Сейнт Атан (Великобритания): широта 51.40 долгота -3.43 высота над уровнем моря 49 м.

В архиве по умолчанию представлена погода в Сейнт Атан за последнюю неделю. Архивные данные за месяц целиком и за предыдущие месяцы, начиная с января 2011 года, Вы можете получить, выбрав интересующий диапазон дат из раскрывающегося списка и нажав кнопку "Ввод!".


*Определитесь, кто Вы:
робот инопланетянин человек

Внимание! Время в таблицах - всемирное. Для получения местного времени необходимо прибавить поправку, которая равна 0 ч.

Смотрите также архив погоды в соседних городах и на ближайших метеорологических станциях:

Погода в Лискомбе (Великобритания) (38 км)
Погода в Мамблсе (Великобритания) (43 км)
Погода в Филтоне (Великобритания) (60 км)
Погода в Данкесуэлле (Великобритания) (61 км)
Погода на Базе Chivenor (Великобритания) (61 км)
Погода в Йеавилтоне (Великобритания) (71 км)
Погода в Пембри Сэндс (Великобритания) (74 км)
Погода в Аэропорту Эксетер (Великобритания) (75 км)
Погода в Аэропорту Эксетер 2 (Великобритания) (75 км)
Погода в Сеннибридже (Великобритания) (76 км)

Пояснения к столбцам:

Ветер - указаны скорость ветра в м/с - средняя за 10 мин, порывы в срок и между сроками (в фигурных скобках) и направление, откуда дует ветер: С - северный, СВ - северо-восточный, В - восточный, ЮВ - юго-восточный, Ю - южный, ЮЗ - юго-западный, З - западный, СЗ - северо-западный.
Видимость - горизонтальная дальность видимости в метрах или километрах. При видимости от 1 до 10 км при отсутствии осадков обычно наблюдается дымка, при ухудшении видимости до 1 км и менее - туман. В сухую погоду видимость может ухудшаться дымом, пылью или мглою.
Явления - указаны атмосферные явления, наблюдавшиеся в срок или в последний час перед сроком; фигурными скобками обозначены явления, наблюдавшиеся между сроками (за 1-3 часа до срока); квадратными скобками обозначены град или гололедные отложения с указанием их диаметра в мм.
Облачность - указаны через наклонную черту общая и нижняя облачность в баллах и высота нижней границы облаков в метрах; квадратными скобками обозначены формы облаков: Ci - перистые, Cs - перисто-слоистые, Cc - перисто-кучевые, Ac - высококучевые, As - высокослоистые, Sc - слоисто-кучевые, Ns - слоисто-дождевые, Cu - кучевые, Cb - кучево-дождевые. Подробнее классификацию облаков см. в Атласе облаков (PDF).
T - Температура воздуха - температура, измеренная на высоте 2 м над землей.
Td - Температура точки росы - температура, при понижении до которой содержащийся в воздухе водяной пар достигнет насыщения.
f - Относительная влажность воздуха - влажноcть воздуха, измеренная на высоте 2 м над землей.
Te - Эффективная температура - температура, которую ощущает одетый по сезону человек в тени. Характеристика душности погоды. При расчете учитывается влияние влажности воздуха и скорости ветра на теплоощущения человека.
Tes - Эффективная температура на солнце - температура, которую ощущает человек, с поправкой на солнечный нагрев. Характеристика знойности погоды. Зависит от высоты солнца над горизонтом, облачности и скорости ветра. Ночью, в пасмурную погоду, а также при ветре 12 м/с и более поправка равна нулю.
P - Атмосферное давление - приведенное к уровню моря атмосферное давление.
Po - Атмосферное давление - измеренное на уровне метеостанции атмосферное давление.
Tmin - Минимальная температура - минимум температуры воздуха на высоте 2 м над землей.
Tmax - Максимальная температура - максимум температуры воздуха на высоте 2 м над землей.
R - Количество осадков - Количество выпавших осадков за период времени, мм. При наведении курсора мыши на число - период времени, за который выпало указанное количество осадков.
R24 - Количество осадков - Количество выпавших осадков за 24 часа, мм.
S - Снежный покров - Высота снежного покрова, см. При наведении курсора мыши на число - состояние снежного покрова и степень покрытия местности в баллах.